Location: La Cure
(46.4652°N, 6.0721°E)
Time: 23:25:24
(UTC+00:00)

Daily predictions for brighter satellites

Satellite Brightness Start Highest point End
(mag) Time Altitude Azimuth Time Altitude Azimuth Time Altitude Azimuth
USA 267 3.3 17:29:51 10° ESE 17:36:23 75° NNE 17:42:56 10° NW
Cosmos 1805 3.2 17:37:19 10° S 17:41:08 61° E 17:44:59 10° NNE
Cosmos 1242 Rocket 2.5 17:38:49 10° S 17:42:23 88° ESE 17:45:56 10° NNE
ISS -3.0 17:43:47 10° WNW 17:47:04 51° SSW 17:50:21 10° SE
Cosmos 2082 4.2 17:41:37 10° NNW 17:47:19 67° WSW 17:52:59 10° SSE
Cosmos 1697 Rocket 3.8 17:41:59 10° SW 17:47:24 49° WNW 17:52:53 10° NNE
CZ-4 R/B 2.5 17:44:18 10° SE 17:47:50 27° ENE 17:51:21 10° N
BREEZE M DEB (TANK) 4.2 17:42:42 10° SSW 17:49:56 26° SSE 17:53:03 11° E
Okean 2 4.0 17:45:56 10° NNW 17:50:03 62° W 17:54:07 10° S
Cosmos 1908 Rocket 4.3 17:49:05 10° SSE 17:52:52 30° E 17:56:40 10° NNE
MOS 1-B 4.4 17:48:06 10° SSE 17:53:49 64° ENE 17:59:34 10° N
SL-14 R/B 3.2 17:50:13 10° N 17:54:12 75° E 17:58:11 10° SSE
Cosmos 1733 3.2 17:50:54 10° S 17:54:38 82° W 17:58:23 10° N
Cosmos 2360 Rocket 3.7 17:52:18 10° SE 17:54:59 14° E 17:57:39 10° ENE
Cosmos 1809 Rocket 4.4 17:51:56 10° S 17:57:57 72° E 18:04:03 10° NNE
Cosmos 1766 3.4 17:57:12 10° S 18:00:59 49° E 18:04:49 10° NNE
Meteor 2-10 4.1 17:56:52 10° S 18:02:30 81° E 18:07:59 10° NNE
Cosmos 1674 Rocket 3.5 17:59:01 10° N 18:03:27 76° E 18:07:52 10° SSE
Cosmos 1025 Rocket 4.4 18:02:44 10° NNE 18:05:55 20° ENE 18:07:56 15° ESE
YAOGAN 1 2.6 18:01:45 10° SSE 18:05:58 57° ENE 18:10:13 10° N
Cosmos 968 Rocket 3.9 18:02:41 10° S 18:07:34 41° ESE 18:12:28 10° NE
Okean O Rocket 1.7 18:05:36 10° SSE 18:09:49 52° ENE 18:14:06 10° N
IRIDIUM 106 4.3 18:06:25 10° SSE 18:11:33 63° E 18:16:43 10° N
Lacrosse 4 Rocket 2.6 18:09:22 10° SSE 18:12:23 20° ESE 18:13:56 17° E
SKYMED 2 4.3 18:10:02 10° N 18:14:18 57° WNW 18:18:33 10° SSW
Nadezhda 4 Rocket 4.0 18:08:37 10° S 18:14:52 66° E 18:21:07 10° NNE
Meteor 2-5 Rocket 4.0 18:10:27 10° N 18:15:45 44° ENE 18:21:01 10° SE
Meteor 1-15 Rocket 4.3 18:11:15 10° S 18:16:37 52° E 18:22:01 10° NNE
Cosmos 2285 Rocket 4.0 18:15:52 10° NNW 18:22:15 79° ENE 18:28:39 10° SSE
USA 186 3.1 18:22:41 23° ENE 18:22:58 23° ENE 18:25:41 10° NNE
Cosmos 1726 2.5 18:19:33 10° SSW 18:23:09 66° W 18:26:48 10° N
Cosmos 2322 Rocket 2.7 18:18:18 10° S 18:23:25 35° ESE 18:28:34 10° NE
Cosmos 1470 3.1 18:24:14 10° SSE 18:27:50 40° E 18:31:26 10° NNE
CZ-4B R/B 3.3 18:22:56 10° SSE 18:28:19 80° WSW 18:33:51 10° NNW
Cosmos 1980 Rocket 3.3 18:24:09 10° SW 18:29:32 45° NW 18:34:56 10° NNE
Cosmos 1378 Rocket 4.2 18:25:40 10° NNW 18:29:57 57° W 18:34:12 10° S
Cosmos 1975 Rocket 3.6 18:27:05 10° N 18:31:10 35° ENE 18:33:08 24° ESE
ARGOS Delta rocket 4.2 18:26:24 10° N 18:31:40 77° WNW 18:36:37 10° SSW
Cosmos 2292 Rocket 3.5 18:32:48 10° S 18:38:00 70° E 18:41:56 10° NNE
USA 215 3.8 18:37:41 10° NE 18:44:02 55° NNW 18:50:23 10° W
IRS-1C Rocket 4.5 18:43:42 27° ESE 18:46:03 42° ENE 18:50:59 10° N
Cosmos 1844 Rocket 2.9 18:44:55 10° NNW 18:50:30 53° ENE 18:52:59 31° ESE
SL-16 R/B 2.1 18:47:53 10° SSW 18:53:34 83° ESE 18:59:16 10° NNE
Cosmos 1570 Rocket 4.2 18:50:31 10° NNW 18:55:45 70° WSW 19:00:56 10° S
Landsat 5 3.6 18:51:46 10° NNE 18:56:12 55° E 19:00:32 10° S
Cosmos 1092 Rocket 3.9 18:50:04 10° S 18:56:21 77° E 19:02:38 10° N
Resurs 01 Rocket 3.2 19:01:19 21° NE 19:01:19 21° NE 19:03:42 10° NNE
SJ-6B 2.6 19:02:07 63° ESE 19:02:23 66° ENE 19:06:10 10° N
Cosmos 2278 Rocket 4.1 19:02:03 10° N 19:05:08 15° NE 19:05:41 14° NE
Cosmos 1437 Rocket 3.6 19:01:57 10° SSW 19:05:34 48° WNW 19:09:13 10° N
H-2A R/B 4.0 19:07:12 21° NNE 19:07:12 21° NNE 19:08:55 10° N
Cosmos 2263 Rocket 4.2 19:04:35 10° NW 19:09:16 27° WSW 19:13:56 10° SSW
Meteor 1-24 Rocket 3.7 19:05:48 10° NNW 19:11:07 76° W 19:16:12 12° S
Resurs 1-3 3.6 19:11:26 58° ENE 19:11:30 58° ENE 19:15:50 10° N
SL-4 R/B 3.5 19:12:20 10° WNW 19:16:28 36° SW 19:17:52 29° S
Cosmos 2084 Rocket 3.4 19:15:51 10° NW 19:19:41 65° SW 19:19:51 64° SW
USA 267 4.3 19:14:27 13° SSE 19:19:42 38° SW 19:25:46 10° WNW
Okean-O 2.5 19:20:29 63° SSE 19:21:11 89° ENE 19:25:38 10° NNW
CZ-4 R/B 3.3 19:18:56 10° SSW 19:22:40 31° W 19:26:24 10° NNW
Cosmos 1486 Rocket 3.9 19:17:39 10° SSW 19:22:57 73° ESE 19:28:17 10° NNE
OBJECT-B 3.2 19:24:56 16° NW 19:24:56 16° NW 19:25:38 10° NNW
Cosmos 1844 3.5 19:19:27 10° NNW 19:25:03 81° ENE 19:26:13 57° SE
IGS 5A 3.5 19:24:37 65° SSW 19:25:06 74° WSW 19:29:16 10° NNW
DNEPR-1 R/B 3.8 19:22:33 10° SW 19:27:14 90° NW 19:30:36 24° NE
Cosmos 2333 Rocket 4.5 19:36:34 - NE 19:36:34 - NE 19:24:22 10° S
Cosmos 1300 Rocket 3.5 19:30:15 82° W 19:30:17 82° W 19:34:41 10° N
S3M 4.2 19:24:16 10° N 19:30:10 48° ENE 19:30:10 48° ENE
CSL-04 Debris 4.4 19:28:02 24° S 19:31:20 65° WSW 19:36:44 10° NNW
Cosmos 773 Rocket 4.4 19:26:22 10° NNW 19:31:00 47° NE 19:31:00 47° NE
Cosmos 2360 Rocket 2.0 19:32:26 10° SSW 19:38:05 87° ESE 19:43:47 10° NNE
Cosmos 1025 Rocket 4.1 19:39:38 10° NNW 19:43:43 42° W 19:44:51 34° SW
Okean O Rocket 4.3 19:43:36 10° SW 19:46:29 17° W 19:49:23 10° NW
Lacrosse 4 Rocket 2.5 19:46:45 10° SW 19:50:17 43° WNW 19:50:17 43° WNW
Cosmos 1417 Rocket 4.3 19:44:37 10° N 19:50:48 81° E 19:51:04 79° ESE
USA 186 4.4 19:55:51 21° WNW 19:55:51 21° WNW 19:57:54 10° NW
ATLAS 2AS CENTAUR R/B 4.1 19:54:19 10° NNW 20:00:10 25° NNE 20:01:35 24° NE
MOS 1 4.3 20:01:33 70° N 20:01:33 70° N 20:06:35 10° NNW
Cosmos 1553 Rocket 4.4 19:58:15 10° NNW 20:04:31 62° W 20:06:33 42° SSW
SPOT 1/Viking Rocket 4.2 20:07:54 51° NNW 20:07:54 51° NNW 20:11:42 10° NNW
Cosmos 2322 Rocket 3.4 20:02:01 10° SW 20:07:23 41° NW 20:12:47 10° NNE
NOSS 3-4 (A) 3.9 20:05:22 10° NW 20:12:04 62° NE 20:12:04 62° NE
NOSS 3-4 (C) 3.9 20:05:28 10° NW 20:12:10 62° NE 20:12:10 62° NE
Ariane Rocket 4.3 20:16:26 32° N 20:16:26 32° N 20:19:10 10° N
NOSS 3-3 (A) 4.3 20:15:36 10° SW 20:30:26 - NE 20:20:03 55° W
NOSS 3-3 (C) 4.4 20:15:42 10° SW 20:30:32 - NE 20:19:58 52° WSW
Aureole 1 Rocket 4.3 20:17:49 10° SSW 20:25:10 65° WNW 20:30:58 10° NNE
USA 281 4.1 20:27:40 37° NNE 20:27:40 37° NNE 20:32:19 10° NNW
USA 215 4.4 20:24:15 29° NNE 20:26:20 36° N 20:32:09 10° WNW
Cosmos 1844 Rocket 4.3 20:29:24 10° NW 20:34:02 26° WSW 20:34:40 26° WSW
Resurs 01 Rocket 3.9 20:38:52 22° NW 20:38:52 22° NW 20:40:38 10° NNW
Terra 4.4 20:42:43 13° N 20:42:43 13° N 20:43:15 10° N
Cosmos 1943 Rocket 4.3 20:37:16 10° N 20:38:59 16° N 20:38:59 16° N
Cosmos 2278 Rocket 3.8 20:44:47 10° NNW 20:47:32 29° NNW 20:47:32 29° NNW
Cosmos 2360 Rocket 4.5 21:18:47 10° W 21:22:52 20° NW 21:26:57 10° N
ATLAS 2AS CENTAUR R/B 4.2 21:45:27 10° NW 21:49:00 31° NNW 21:49:00 31° NNW
